Location: Chakepay
(13.3931°S, 72.1925°W)
Time: 15:59:21
(UTC+00:00)

Cosmos 2333 Rocket - Pass Details

Date: 15 November 2019
Orbit: 837 x 865 km, 70.8° (Epoch: 13 December)

Event Time Altitude Azimuth Distance (km) Brightness Sun altitude
Rises 01:53:54 0° 216° (SW) 3,396 6.2 -39.5°
Reaches altitude 10° 01:56:42 10° 228° (SW) 2,458 5.3 -40.0°
Enters shadow 01:59:18 21° 251° (WSW) 1,782 4.3 -40.5°
